User: anonymous   Login
Location: Deer Lake
(49.1830°N, 57.4330°W)
Time: 16:35:12
(UTC-02:-30)
Language:

Cosmos 1707 - Orbit

View from above orbital plane
View from above orbital plane
View from above satellite
View from above satellite

Ground track
Ground track

The orbit data is extracted from the following two-line orbital elements,

1 16326U 85113A   16269.04188228  .00001502  00000-0  83622-4 0  9996
2 16326  82.5093 108.7316 0012072 131.6319 228.5948 15.12843491677252
Epoch (UTC): 25 September 2016 01:00:18
Eccentricity: 0.0012072
inclination: 82.5093°
perigee height: 519 km
apogee height: 536 km
right ascension of ascending node: 108.7316°
argument of perigee: 131.6319°
revolutions per day: 15.12843491
mean anomaly at epoch: 228.5948°
orbit number at epoch: 67725

The dashed part of the orbit path shows where the satellite is in the earth's shadow,  

DLR